Total_Precipitation_Accumulation
0.00 0.00 0.00 0.00 0.00 0.00 0.00 0.00 0.00 0.00 0.00 0.00 0.00 0.00 0.00 0.00 0.01 0.00 0.01 0.00 0.00 0.00 0.00 0.00 0.00 0.00 0.00 0.00 0.00 0.00 0.00 0.00 0.00 0.00 0.00 0.00 0.00 0.00 0.00 0.00 0.00 0.00 0.00 0.00 0.00 0.00 0.00 0.00 0.00 0.00 0.01 0.01 0.02 0.01 0.02 0.01 0.01 0.02 0.01 0.01 0.03 0.03 0.02 0.02 0.07 0.02 0.00 0.00 0.01 0.01 0.01 0.01 0.01 0.00 0.01 0.02 0.01 0.02 0.00 0.00 0.00 0.00 0.00 0.00 0.02
0.00 0.00 0.00 0.00 0.00 0.00 0.00 0.00 0.00 0.00 0.00 0.00 0.01 0.01 0.01 0.00 0.00 0.00 0.00 0.00 0.00 0.00 0.00 0.00 0.00 0.00 0.00 0.00 0.00 0.00 0.00 0.00 0.00 0.00 0.00 0.00 0.00 0.00 0.00 0.00 0.00 0.00 0.00 0.00 0.00 0.00 0.00 0.00 0.00 0.00 0.01 0.02 0.01 0.02 0.04 0.01 0.02 0.02 0.01 0.01 0.02 0.02 0.02 0.04 0.02 0.04 0.01 0.01 0.00 0.02 0.02 0.02 0.02 0.01 0.02 0.02 0.03 0.02 0.01 0.00 0.02 0.01 0.01 0.00 0.02
0.00 0.00 0.00 0.00 0.00 0.00 0.00 0.00 0.00 0.00 0.00 0.00 0.01 0.01 0.00 0.01 0.00 0.00 0.00 0.00 0.00 0.00 0.00 0.00 0.00 0.00 0.00 0.00 0.00 0.00 0.01 0.01 0.00 0.00 0.00 0.00 0.00 0.00 0.00 0.00 0.00 0.00 0.00 0.00 0.00 0.00 0.00 0.00 0.00 0.00 0.00 0.02 0.00 0.01 0.00 0.00 0.01 0.01 0.01 0.02 0.02 0.02 0.05 0.03 0.05 0.06 0.05 0.02 0.01 0.01 0.01 0.02 0.01 0.03 0.01 0.01 0.01 0.01 0.03 0.02 0.01 0.02 0.00 0.00 0.01
0.00 0.00 0.00 0.00 0.00 0.00 0.00 0.00 0.00 0.00 0.00 0.03 0.03 0.10 0.04 0.01 0.01 0.00 0.00 0.00 0.00 0.00 0.00 0.00 0.00 0.00 0.01 0.02 0.03 0.03 0.02 0.02 0.02 0.00 0.00 0.00 0.00 0.00 0.00 0.00 0.00 0.00 0.00 0.00 0.00 0.00 0.00 0.00 0.00 0.00 0.00 0.00 0.00 0.00 0.01 0.02 0.03 0.01 0.01 0.02 0.02 0.01 0.02 0.03 0.03 0.02 0.06 0.09 0.03 0.02 0.00 0.01 0.01 0.01 0.01 0.01 0.01 0.02 0.02 0.02 0.00 0.00 0.00 0.01 0.01
0.00 0.00 0.00 0.00 0.01 0.00 0.07 0.03 0.00 0.01 0.03 0.08 0.05 0.05 0.04 0.05 0.03 0.01 0.00 0.01 0.03 0.06 0.04 0.04 0.08 0.11 0.12 0.09 0.07 0.06 0.04 0.02 0.00 0.00 0.00 0.00 0.00 0.00 0.00 0.00 0.00 0.00 0.00 0.00 0.00 0.00 0.00 0.00 0.00 0.00 0.00 0.00 0.01 0.01 0.01 0.02 0.01 0.01 0.01 0.01 0.01 0.04 0.06 0.02 0.02 0.08 0.07 0.13 0.06 0.03 0.02 0.01 0.01 0.01 0.01 0.03 0.02 0.01 0.01 0.01 0.01 0.01 0.00 0.01 0.02
0.00 0.00 0.00 0.01 0.01 0.03 0.03 0.01 0.01 0.02 0.05 0.03 0.06 0.02 0.01 0.00 0.00 0.01 0.02 0.05 0.06 0.07 0.10 0.16 0.19 0.18 0.14 0.11 0.08 0.06 0.02 0.00 0.00 0.00 0.00 0.00 0.00 0.00 0.00 0.00 0.00 0.00 0.00 0.00 0.00 0.00 0.00 0.00 0.00 0.00 0.00 0.00 0.00 0.00 0.00 0.01 0.02 0.01 0.01 0.01 0.06 0.21 0.11 0.10 0.17 0.29 0.10 0.07 0.18 0.11 0.04 0.04 0.03 0.01 0.01 0.02 0.04 0.04 0.01 0.01 0.01 0.01 0.02 0.02 0.02
0.00 0.00 0.00 0.00 0.00 0.11 0.04 0.02 0.03 0.05 0.03 0.05 0.16 0.22 0.12 0.01 0.02 0.03 0.04 0.11 0.22 0.20 0.24 0.23 0.20 0.17 0.13 0.10 0.05 0.01 0.00 0.00 0.00 0.00 0.00 0.00 0.00 0.00 0.00 0.00 0.00 0.00 0.00 0.00 0.00 0.00 0.00 0.01 0.00 0.00 0.00 0.00 0.00 0.01 0.02 0.02 0.01 0.02 0.03 0.02 0.03 0.13 0.08 0.04 0.03 0.04 0.15 0.12 0.06 0.10 0.06 0.03 0.02 0.06 0.05 0.02 0.04 0.02 0.04 0.05 0.08 0.03 0.02 0.04 0.03
0.00 0.00 0.00 0.00 0.00 0.00 0.00 0.05 0.23 0.15 0.22 0.17 0.21 0.12 0.23 0.14 0.12 0.15 0.29 0.30 0.29 0.31 0.28 0.26 0.22 0.15 0.07 0.02 0.00 0.01 0.00 0.00 0.00 0.00 0.00 0.00 0.00 0.00 0.00 0.00 0.00 0.00 0.01 0.01 0.00 0.00 0.00 0.00 0.01 0.00 0.00 0.01 0.01 0.00 0.02 0.01 0.01 0.01 0.01 0.01 0.01 0.02 0.07 0.04 0.03 0.04 0.03 0.03 0.03 0.09 0.05 0.05 0.03 0.02 0.02 0.02 0.06 0.05 0.05 0.07 0.06 0.05 0.05 0.08 0.17
0.00 0.00 0.00 0.00 0.00 0.00 0.00 0.03 0.16 0.38 0.12 0.41 0.32 0.21 0.35 0.29 0.35 0.37 0.26 0.38 0.41 0.33 0.22 0.14 0.07 0.04 0.02 0.01 0.00 0.00 0.00 0.00 0.00 0.00 0.00 0.00 0.00 0.00 0.00 0.00 0.00 0.00 0.02 0.03 0.01 0.01 0.00 0.00 0.01 0.02 0.02 0.01 0.02 0.02 0.01 0.01 0.01 0.00 0.03 0.01 0.05 0.05 0.02 0.08 0.03 0.02 0.07 0.04 0.03 0.07 0.06 0.05 0.04 0.03 0.04 0.07 0.05 0.06 0.05 0.04 0.04 0.03 0.03 0.04 0.05
0.00 0.00 0.00 0.00 0.00 0.00 0.00 0.00 0.04 0.16 0.15 1.39 1.81 0.56 0.60 0.70 0.67 0.53 0.36 0.35 0.25 0.16 0.11 0.07 0.05 0.03 0.01 0.01 0.01 0.00 0.00 0.00 0.00 0.00 0.00 0.00 0.00 0.00 0.00 0.00 0.00 0.00 0.00 0.00 0.01 0.00 0.00 0.02 0.20 0.09 0.08 0.06 0.06 0.04 0.02 0.03 0.08 0.10 0.03 0.03 0.02 0.02 0.02 0.02 0.02 0.02 0.03 0.04 0.07 0.06 0.09 0.16 0.04 0.03 0.04 0.03 0.02 0.03 0.04 0.07 0.09 0.07 0.03 0.10 0.03
0.00 0.00 0.12 0.18 0.17 0.16 0.13 0.00 0.00 0.00 0.60 0.96 1.15 1.32 0.79 0.37 0.28 0.29 0.25 0.16 0.13 0.13 0.11 0.10 0.07 0.04 0.02 0.01 0.01 0.00 0.00 0.00 0.00 0.00 0.00 0.00 0.00 0.00 0.00 0.00 0.00 0.00 0.01 0.00 0.01 0.00 0.00 0.00 0.01 0.02 0.02 0.05 0.09 0.04 0.05 0.05 0.03 0.03 0.03 0.02 0.01 0.01 0.01 0.02 0.02 0.02 0.03 0.03 0.06 0.04 0.04 0.07 0.04 0.02 0.02 0.03 0.03 0.08 0.08 0.06 0.09 0.08 0.10 0.12 0.10
0.28 0.26 0.36 0.47 0.47 0.38 0.23 0.11 0.01 0.06 0.44 1.07 1.09 0.96 0.63 0.19 0.16 0.09 0.08 0.08 0.10 0.10 0.12 0.12 0.09 0.06 0.04 0.02 0.01 0.00 0.00 0.00 0.00 0.00 0.00 0.00 0.00 0.00 0.00 0.00 0.00 0.00 0.00 0.00 0.00 0.01 0.01 0.04 0.10 0.17 0.16 0.14 0.13 0.08 0.06 0.03 0.02 0.01 0.01 0.01 0.03 0.01 0.00 0.00 0.01 0.02 0.02 0.04 0.04 0.07 0.04 0.05 0.04 0.04 0.05 0.07 0.07 0.07 0.05 0.10 0.06 0.08 0.13 0.16 0.13
0.36 0.28 0.45 0.68 0.56 0.26 0.24 0.03 0.00 0.19 0.98 1.22 0.79 1.08 0.38 0.43 0.27 0.13 0.10 0.19 0.05 0.09 0.13 0.14 0.12 0.09 0.05 0.03 0.02 0.01 0.01 0.00 0.00 0.00 0.00 0.00 0.00 0.00 0.00 0.00 0.00 0.00 0.00 0.00 0.00 0.01 0.06 0.08 0.14 0.28 0.11 0.05 0.07 0.04 0.02 0.01 0.01 0.01 0.01 0.01 0.00 0.00 0.00 0.00 0.00 0.03 0.08 0.05 0.04 0.03 0.03 0.04 0.13 0.15 0.06 0.07 0.04 0.13 0.28 0.52 0.47 0.19 0.11 0.12 0.10
0.79 0.59 0.48 0.46 0.41 0.24 0.06 0.01 0.03 0.97 1.21 1.60 0.99 0.11 0.15 0.07 0.22 0.37 0.26 0.12 0.18 0.13 0.14 0.15 0.13 0.11 0.08 0.06 0.05 0.03 0.02 0.01 0.01 0.00 0.00 0.01 0.01 0.01 0.00 0.01 0.00 0.01 0.01 0.02 0.01 0.00 0.02 0.05 0.45 0.49 0.08 0.12 0.04 0.02 0.03 0.02 0.06 0.06 0.04 0.05 0.04 0.02 0.01 0.00 0.00 0.00 0.01 0.02 0.08 0.07 0.03 0.47 0.28 0.11 0.09 0.05 0.09 0.17 0.39 0.58 0.72 0.56 0.20 0.09 0.05
0.55 0.52 0.28 0.15 0.01 0.01 0.01 0.00 0.31 0.77 1.12 0.96 0.38 0.22 0.02 0.14 0.17 0.32 0.17 0.09 0.12 0.06 0.06 0.06 0.06 0.06 0.05 0.05 0.05 0.05 0.04 0.02 0.01 0.01 0.00 0.00 0.00 0.00 0.00 0.01 0.02 0.02 0.02 0.02 0.02 0.02 0.14 0.47 0.42 0.15 0.03 0.07 0.04 0.01 0.01 0.00 0.00 0.02 0.04 0.03 0.04 0.01 0.03 0.04 0.03 0.14 0.06 0.07 0.06 0.04 0.03 0.02 0.05 0.06 0.04 0.03 0.03 0.12 0.61 0.76 0.82 0.40 0.25 0.20 0.07
0.05 0.03 0.01 0.01 0.01 0.01 0.01 0.01 0.03 0.77 0.55 0.23 0.11 0.02 0.05 0.19 0.13 0.12 0.12 0.11 0.05 0.03 0.04 0.04 0.08 0.21 0.15 0.15 0.12 0.08 0.05 0.03 0.01 0.01 0.01 0.02 0.01 0.02 0.02 0.01 0.02 0.01 0.02 0.01 0.02 0.07 0.12 0.37 0.07 0.09 0.10 0.09 0.05 0.03 0.12 0.25 0.28 0.26 0.05 0.05 0.02 0.01 0.02 0.01 0.00 0.00 0.01 0.01 0.01 0.02 0.02 0.01 0.01 0.01 0.03 0.02 0.04 0.44 1.04 0.83 0.37 0.31 0.58 0.54 0.34
0.02 0.01 0.01 0.01 0.01 0.01 0.01 0.01 0.07 0.01 0.00 0.04 0.01 0.00 0.02 0.10 0.03 0.05 0.05 0.03 0.01 0.01 0.02 0.04 0.03 0.09 0.08 0.03 0.03 0.03 0.05 0.05 0.05 0.04 0.04 0.02 0.02 0.02 0.01 0.01 0.04 0.03 0.05 0.08 0.04 0.12 0.24 0.20 0.10 0.15 0.05 0.04 0.07 0.14 0.21 0.12 0.04 0.03 0.02 0.03 0.03 0.04 0.03 0.03 0.03 0.01 0.00 0.00 0.00 0.00 0.00 0.00 0.00 0.00 0.00 0.00 0.26 0.96 1.68 1.09 0.10 0.67 0.81 1.05 0.52
0.01 0.01 0.02 0.01 0.01 0.01 0.00 0.00 0.00 0.01 0.00 0.00 0.00 0.01 0.01 0.03 0.04 0.04 0.03 0.01 0.01 0.00 0.01 0.02 0.04 0.03 0.02 0.02 0.02 0.05 0.06 0.03 0.01 0.01 0.01 0.01 0.02 0.03 0.02 0.03 0.07 0.06 0.08 0.30 0.30 0.25 0.05 0.05 0.03 0.06 0.18 0.14 0.03 0.12 0.03 0.22 0.26 0.03 0.02 0.02 0.01 0.02 0.01 0.01 0.01 0.02 0.01 0.00 0.00 0.00 0.00 0.00 0.01 0.01 0.02 0.02 1.57 1.75 1.48 0.43 0.17 0.70 1.26 1.01 0.60
0.00 0.00 0.01 0.01 0.01 0.00 0.00 0.00 0.00 0.00 0.01 0.00 0.00 0.02 0.04 0.05 0.03 0.02 0.01 0.01 0.00 0.00 0.00 0.02 0.03 0.01 0.00 0.06 0.04 0.03 0.05 0.04 0.03 0.02 0.02 0.08 0.07 0.10 0.13 0.10 0.09 0.27 0.16 0.29 0.23 0.07 0.12 0.06 0.14 0.17 0.12 0.06 0.10 0.17 0.06 0.04 0.01 0.01 0.01 0.01 0.01 0.01 0.01 0.01 0.01 0.01 0.01 0.01 0.01 0.01 0.01 0.02 0.07 0.05 0.04 0.01 0.01 0.55 0.82 0.78 0.66 1.48 1.59 0.93 0.68
0.00 0.00 0.00 0.00 0.00 0.00 0.00 0.00 0.00 0.00 0.01 0.01 0.02 0.04 0.03 0.01 0.01 0.00 0.01 0.01 0.01 0.01 0.00 0.01 0.02 0.02 0.02 0.04 0.05 0.01 0.03 0.07 0.02 0.01 0.04 0.07 0.09 0.09 0.10 0.08 0.08 0.05 0.05 0.11 0.18 0.16 0.05 0.09 0.05 0.03 0.01 0.01 0.00 0.00 0.00 0.03 0.00 0.00 0.02 0.01 0.02 0.07 0.02 0.03 0.02 0.20 0.05 0.02 0.03 0.02 0.02 0.03 0.03 0.04 0.01 0.01 0.00 0.01 0.01 0.46 0.96 1.45 1.33 1.18 0.58
0.00 0.00 0.00 0.00 0.00 0.00 0.00 0.00 0.00 0.00 0.00 0.00 0.00 0.00 0.00 0.00 0.00 0.00 0.00 0.00 0.00 0.00 0.00 0.00 0.01 0.01 0.02 0.02 0.02 0.04 0.05 0.09 0.10 0.07 0.09 0.09 0.08 0.05 0.06 0.05 0.05 0.02 0.03 0.05 0.03 0.11 0.14 0.07 0.06 0.01 0.00 0.00 0.00 0.01 0.01 0.00 0.00 0.01 0.03 0.02 0.03 0.42 0.78 0.72 0.56 0.56 0.15 0.02 0.01 0.03 0.05 0.02 0.00 0.00 0.00 0.00 0.01 0.00 0.01 0.06 0.64 1.09 1.22 1.03 0.72
0.00 0.00 0.00 0.00 0.00 0.00 0.00 0.00 0.00 0.00 0.01 0.01 0.00 0.00 0.00 0.00 0.00 0.00 0.00 0.00 0.00 0.00 0.00 0.00 0.00 0.01 0.02 0.03 0.03 0.03 0.07 0.06 0.12 0.04 0.02 0.01 0.01 0.01 0.01 0.01 0.01 0.01 0.01 0.01 0.01 0.02 0.02 0.03 0.02 0.01 0.00 0.00 0.01 0.01 0.01 0.01 0.00 0.04 0.02 0.02 0.05 1.23 2.63 2.43 1.49 0.80 0.26 0.08 0.07 0.04 0.01 0.01 0.02 0.01 0.00 0.00 0.00 0.00 0.01 0.08 0.21 0.77 1.18 0.95 0.61
0.00 0.00 0.00 0.00 0.00 0.00 0.00 0.00 0.00 0.00 0.00 0.01 0.01 0.00 0.00 0.00 0.00 0.00 0.00 0.00 0.00 0.00 0.01 0.01 0.03 0.06 0.09 0.07 0.03 0.02 0.03 0.02 0.01 0.01 0.00 0.01 0.02 0.10 0.03 0.01 0.01 0.01 0.04 0.01 0.01 0.02 0.01 0.03 0.00 0.00 0.00 0.01 0.01 0.01 0.01 0.01 0.01 0.01 0.01 0.01 0.03 1.28 2.73 4.02 3.53 2.36 0.83 0.25 0.07 0.04 0.02 0.00 0.00 0.00 0.00 0.00 0.01 0.00 0.01 0.33 0.59 1.08 0.99 0.68 0.35
0.00 0.00 0.00 0.00 0.00 0.00 0.00 0.00 0.00 0.00 0.00 0.00 0.00 0.00 0.01 0.00 0.00 0.00 0.00 0.00 0.00 0.01 0.01 0.02 0.02 0.02 0.03 0.04 0.04 0.03 0.03 0.04 0.20 0.65 0.34 0.10 0.07 0.02 0.02 0.00 0.00 0.02 0.01 0.05 0.11 0.07 0.03 0.01 0.00 0.00 0.01 0.01 0.02 0.01 0.01 0.01 0.01 0.01 0.02 0.02 0.09 1.26 3.14 3.33 5.63 4.72 2.19 0.47 0.09 0.04 0.02 0.00 0.00 0.00 0.00 0.00 0.00 0.01 0.07 0.46 0.67 1.00 0.60 0.57 0.49
0.00 0.00 0.00 0.00 0.00 0.00 0.00 0.00 0.00 0.00 0.00 0.00 0.00 0.00 0.00 0.00 0.00 0.00 0.00 0.00 0.00 0.00 0.00 0.00 0.01 0.01 0.01 0.14 0.37 0.51 0.67 0.61 0.53 0.53 0.36 0.01 0.01 0.01 0.02 0.02 0.01 0.01 0.01 0.01 0.01 0.00 0.01 0.00 0.01 0.01 0.02 0.02 0.02 0.02 0.02 0.02 0.02 0.02 0.02 0.03 0.09 0.38 2.10 2.79 2.81 4.57 1.76 0.16 0.07 0.03 0.01 0.04 0.00 0.01 0.01 0.00 0.01 0.04 0.31 0.52 0.86 0.67 0.44 0.46 0.31
0.00 0.00 0.00 0.00 0.00 0.00 0.00 0.00 0.00 0.00 0.00 0.00 0.00 0.00 0.00 0.00 0.00 0.01 0.00 0.00 0.00 0.00 0.00 0.02 0.11 0.44 0.78 0.54 0.14 0.11 0.17 0.23 0.16 0.16 0.04 0.03 0.06 0.05 0.03 0.02 0.01 0.01 0.01 0.01 0.02 0.01 0.00 0.01 0.02 0.03 0.04 0.04 0.02 0.02 0.02 0.02 0.02 0.02 0.02 0.05 0.13 0.63 1.95 2.33 1.73 2.45 1.62 0.15 0.06 0.05 0.23 0.79 0.05 0.03 0.01 0.03 0.10 0.34 0.67 0.73 0.61 0.38 0.30 0.16 0.07
0.01 0.02 0.00 0.01 0.03 0.01 0.01 0.00 0.00 0.00 0.00 0.00 0.00 0.00 0.02 0.02 0.13 0.21 0.25 0.25 0.37 0.54 0.54 0.82 0.65 0.27 0.13 0.03 0.12 0.17 0.13 0.15 0.11 0.05 0.07 0.04 0.04 0.03 0.01 0.02 0.02 0.03 0.04 0.01 0.02 0.07 0.07 0.05 0.14 0.04 0.05 0.05 0.03 0.02 0.01 0.02 0.05 0.03 0.14 0.16 0.16 0.30 0.46 0.76 0.73 1.71 0.62 0.16 0.07 0.08 0.77 0.61 0.41 0.08 0.07 0.26 0.59 0.87 0.88 0.47 0.11 0.06 0.04 0.09 0.12
0.39 0.42 0.54 0.59 0.63 0.76 1.01 0.83 0.18 0.00 0.00 0.01 0.05 0.06 0.24 0.40 0.43 0.38 0.24 0.19 0.12 0.04 0.12 0.13 0.10 0.09 0.08 0.14 0.20 0.25 0.22 0.19 0.12 0.11 0.10 0.06 0.04 0.03 0.02 0.02 0.03 0.02 0.03 0.06 0.16 0.18 0.70 0.63 0.33 0.76 0.61 0.18 0.09 0.05 0.05 0.06 0.10 0.05 0.07 0.06 0.12 0.09 0.09 0.08 0.66 0.95 0.28 0.16 0.09 0.49 0.89 0.80 0.35 0.09 0.32 0.72 0.54 0.28 0.09 0.03 0.05 0.03 0.10 0.25 0.37
0.99 0.97 0.76 0.83 0.62 0.66 0.41 0.13 0.08 0.35 0.36 0.93 1.08 1.03 0.40 0.29 0.27 0.26 0.17 0.10 0.08 0.15 0.11 0.17 0.24 0.40 0.39 0.37 0.28 0.16 0.08 0.12 0.11 0.03 0.04 0.04 0.09 0.10 0.06 0.11 0.01 0.02 0.21 0.40 0.37 0.27 1.50 1.10 0.94 0.75 0.61 0.12 0.15 0.15 0.08 0.03 0.02 0.02 0.04 0.06 0.04 0.08 0.11 0.24 0.19 0.28 0.19 0.67 0.36 0.66 0.61 0.16 0.25 0.40 0.80 0.83 0.25 0.06 0.04 0.08 0.16 0.55 0.32 0.41 0.26
0.41 0.40 0.39 0.34 0.18 0.27 0.11 0.06 0.08 0.08 0.29 0.48 0.62 0.23 0.02 0.03 0.08 0.09 0.08 0.02 0.02 0.03 0.01 0.11 0.20 0.22 0.26 0.12 0.08 0.11 0.18 0.17 0.18 0.25 0.10 0.09 0.03 0.05 0.01 0.01 0.03 0.14 0.13 0.08 0.44 2.14 1.48 0.69 0.51 0.38 0.09 0.21 0.25 0.05 0.05 0.05 0.10 0.09 0.11 0.06 0.10 0.24 0.21 0.14 0.13 0.08 0.21 0.40 0.56 0.99 1.00 0.97 0.75 0.68 0.35 0.27 0.10 0.13 0.13 0.18 0.25 0.42 0.51 0.50 0.29
0.57 0.52 0.47 0.29 0.13 0.16 0.08 0.08 0.08 0.07 0.09 0.02 0.12 0.14 0.08 0.04 0.04 0.06 0.09 0.09 0.16 0.43 0.71 0.82 0.77 0.74 0.68 0.78 0.62 0.57 0.44 0.83 0.57 0.18 0.21 0.27 0.24 0.07 0.04 0.04 0.29 0.24 0.43 0.90 0.70 0.99 0.53 0.30 0.16 0.23 0.35 0.46 0.27 0.07 0.09 0.12 0.12 0.16 0.20 0.12 0.15 0.14 0.10 0.11 0.13 0.23 0.35 0.37 0.89 1.21 1.12 0.77 0.57 0.43 0.50 0.53 0.28 0.24 0.46 0.27 0.20 0.17 0.30 0.31 0.27
1.30 1.21 1.35 1.36 0.96 0.87 1.11 1.04 0.95 0.59 1.00 1.26 1.10 1.20 1.05 0.87 0.44 0.34 0.67 0.75 0.46 0.33 0.37 0.54 0.44 0.63 0.56 0.57 0.74 1.32 1.17 1.38 1.58 1.38 1.56 1.17 0.90 0.38 0.09 0.06 0.09 0.07 0.05 0.24 0.40 0.71 0.54 0.39 0.31 0.47 0.49 0.44 0.39 0.19 0.17 0.58 0.43 0.53 0.26 0.14 0.18 0.11 0.06 0.23 0.45 0.85 0.63 0.32 1.03 0.94 0.61 0.37 0.55 0.83 1.01 0.80 0.45 0.36 0.13 0.06 0.12 0.09 0.12 0.24 0.31
0.68 0.72 1.07 1.08 1.51 1.43 1.06 1.09 1.33 1.86 1.69 1.38 1.52 1.36 0.71 0.52 0.41 0.58 1.02 0.85 0.99 0.95 0.79 0.90 0.96 1.13 1.41 0.84 0.78 1.04 0.90 0.58 0.47 0.23 0.23 0.10 0.09 0.11 0.22 0.59 1.02 0.97 0.88 1.10 0.87 0.80 1.10 1.10 1.16 0.70 0.72 0.55 0.74 0.84 0.57 0.39 0.25 0.29 0.13 0.18 0.11 0.25 0.23 0.38 1.21 0.73 0.26 0.49 0.34 0.33 0.53 0.58 0.79 0.70 0.60 0.54 0.39 0.21 0.13 0.10 0.07 0.06 0.13 0.20 0.22
0.92 0.98 1.20 0.92 1.26 1.90 2.28 2.21 2.00 1.51 1.03 1.72 1.54 1.00 1.15 1.17 0.78 0.51 0.46 0.72 0.95 0.74 0.60 1.00 0.95 1.14 1.37 0.99 0.65 1.23 0.86 0.64 0.68 1.13 2.12 2.18 2.17 2.00 1.70 1.74 2.10 2.66 2.91 3.64 3.21 2.91 2.67 2.21 2.10 1.50 1.41 1.17 1.37 1.59 0.92 0.38 0.09 0.12 0.12 0.31 0.06 0.10 0.17 0.81 0.81 0.60 0.31 0.23 0.25 0.37 0.46 0.50 0.66 0.82 0.75 0.53 0.54 0.45 0.29 0.26 0.10 0.21 0.24 0.22 0.37
1.05 1.02 0.77 0.91 1.58 1.58 1.34 1.49 1.80 2.89 3.05 2.25 1.68 1.68 1.40 1.19 2.01 2.11 0.82 0.50 0.91 1.30 1.30 0.75 0.72 0.38 0.52 0.64 0.97 1.17 0.77 0.40 0.24 0.16 0.26 0.31 0.47 0.52 0.96 1.59 1.76 1.39 2.16 2.37 2.80 2.65 2.03 1.95 1.75 1.66 1.39 0.62 0.37 0.25 0.22 0.48 0.50 0.30 0.20 0.15 0.16 0.29 0.32 0.28 0.42 0.81 0.42 0.42 0.35 0.53 0.64 0.57 0.56 0.48 0.43 0.34 0.44 0.47 0.39 0.26 0.21 0.28 0.41 0.31 0.30
0.95 1.06 1.28 1.28 1.36 1.55 1.44 1.97 2.15 2.23 2.61 2.00 1.83 2.72 2.79 2.33 1.66 1.44 1.57 1.47 2.23 1.75 1.65 1.52 1.61 1.54 1.55 1.45 1.28 1.15 1.55 1.70 1.25 0.55 1.16 1.35 1.07 1.41 2.43 3.35 3.34 3.50 2.42 1.59 1.38 1.05 0.50 0.43 0.35 0.42 0.41 0.74 0.72 0.94 1.01 1.13 0.84 0.74 0.48 0.50 0.50 0.34 0.28 0.56 1.18 1.21 0.51 0.47 0.52 0.51 0.45 0.47 0.52 0.55 0.57 0.50 0.53 0.38 0.55 0.36 0.31 0.30 0.44 0.50 0.57
0.57 0.74 1.04 1.38 1.43 1.27 1.67 1.98 1.77 1.91 1.60 1.88 2.14 2.94 2.92 2.90 2.60 2.01 2.02 1.65 1.85 1.54 1.17 1.09 1.17 1.40 1.26 1.27 0.72 0.75 0.86 1.23 2.14 1.98 2.03 1.87 1.59 2.96 2.42 0.90 0.88 1.36 0.88 0.91 0.79 0.71 0.40 0.35 0.37 0.46 0.50 1.25 1.51 1.27 1.15 1.44 1.37 1.23 1.09 1.25 0.95 0.96 0.96 0.99 1.63 1.54 1.02 0.75 0.61 0.62 0.72 0.65 0.53 0.64 0.72 0.84 0.68 0.55 0.51 0.46 0.37 0.44 0.63 0.53 0.50
0.72 0.80 0.74 0.37 0.77 0.87 0.90 1.49 2.08 1.36 1.70 1.39 1.49 1.58 1.35 1.16 1.04 1.72 1.68 1.58 1.82 2.04 1.29 1.07 1.59 1.90 1.32 1.15 1.40 1.33 0.84 0.82 2.21 3.32 3.07 2.21 1.81 1.97 1.97 1.72 1.11 0.63 0.51 0.55 0.38 0.25 0.31 0.42 0.34 0.58 0.64 1.47 1.38 1.20 1.08 1.12 1.29 1.58 1.72 1.79 1.81 1.51 1.21 1.47 1.84 2.33 1.35 1.06 0.90 1.23 1.10 0.93 0.89 0.86 0.73 0.60 0.53 0.57 0.60 0.67 0.71 0.73 0.78 0.55 0.53
0.59 0.75 0.89 0.89 1.08 1.06 0.97 1.34 1.52 2.01 1.94 1.97 1.75 1.75 1.26 1.05 1.19 1.28 1.16 1.22 1.82 2.41 2.77 2.41 1.92 1.59 1.57 1.30 1.00 1.99 1.97 1.95 1.48 0.79 0.87 1.06 0.99 0.99 1.20 1.36 1.26 1.15 1.06 0.96 0.93 1.00 1.25 1.36 1.07 1.28 1.32 1.61 1.52 1.64 1.30 1.45 1.50 2.09 1.96 1.55 1.19 1.43 1.77 1.43 1.23 1.69 1.23 0.87 0.85 1.00 0.98 0.91 0.77 0.82 0.70 0.59 0.60 0.62 0.67 0.71 0.72 0.74 0.64 0.72 0.89
0.85 1.43 1.68 0.85 0.87 1.53 1.44 1.63 1.17 1.91 2.18 1.07 0.72 0.59 0.73 1.17 1.48 1.82 2.17 2.34 1.89 1.68 1.53 1.74 2.56 2.99 2.60 2.51 2.44 1.89 1.52 2.23 2.19 2.58 1.85 0.82 0.64 0.90 0.79 0.76 1.11 1.04 2.15 1.18 1.46 1.45 1.09 1.14 1.38 1.17 1.23 1.67 1.63 1.63 1.32 1.19 1.14 1.22 1.38 1.46 1.25 1.13 1.23 1.64 1.69 1.53 1.50 1.15 0.98 0.78 0.56 0.58 0.66 0.88 1.15 1.32 0.99 0.69 0.60 0.59 0.67 0.74 0.79 0.73 0.67
1.59 1.68 0.92 0.60 0.64 0.92 1.28 1.55 1.10 0.45 0.36 0.30 0.21 0.16 0.24 0.22 0.35 0.39 1.19 1.75 1.83 1.88 1.88 1.90 1.42 1.34 1.43 1.72 1.98 2.28 3.22 2.95 2.46 1.61 1.86 2.36 1.52 1.12 1.01 1.15 0.95 2.67 1.50 1.26 1.24 1.59 1.30 1.06 1.03 1.11 1.17 1.72 1.50 1.84 1.53 1.36 1.18 1.07 1.05 1.17 1.39 1.38 1.47 1.55 1.18 0.85 0.74 0.85 1.13 1.27 1.35 1.32 1.01 0.92 0.97 0.91 1.02 1.09 1.13 1.00 0.89 0.93 1.20 1.52 1.86
2.56 1.98 1.48 1.06 1.05 1.22 1.60 1.22 0.56 0.39 0.42 0.50 0.63 0.37 0.21 0.36 0.53 0.28 0.22 0.29 0.34 0.37 0.65 0.68 0.77 0.92 1.00 1.12 1.29 1.56 3.87 2.31 2.61 2.10 1.41 1.52 1.99 2.06 1.56 1.01 1.02 1.06 1.55 1.87 1.54 1.24 1.12 1.52 1.39 0.96 0.96 0.89 1.14 1.27 1.00 0.77 0.91 1.13 0.96 0.92 1.02 1.11 1.13 1.04 1.31 1.97 1.92 1.44 0.98 0.96 1.01 1.15 1.24 1.23 1.15 1.09 1.28 1.55 1.76 1.93 2.22 2.33 2.07 1.69 1.51
1.59 2.31 2.43 2.51 2.67 2.82 1.72 2.13 1.74 2.24 1.10 1.09 1.11 0.59 0.55 1.46 1.58 1.98 1.55 1.32 1.05 0.45 0.29 0.36 0.50 0.65 0.67 0.64 0.65 0.75 0.95 1.17 1.42 1.56 1.61 1.47 1.74 2.10 2.44 2.08 1.20 1.10 1.40 1.35 1.21 1.20 0.99 0.98 1.27 1.19 1.27 1.14 0.90 1.08 1.59 1.63 1.18 0.95 1.00 1.06 1.12 1.26 1.70 1.79 1.59 1.16 1.19 1.43 2.00 1.99 1.52 1.16 1.20 1.57 2.18 2.29 1.90 1.62 1.57 1.80 1.77 1.83 1.90 2.21 2.24
0.52 1.65 2.20 1.63 1.55 1.94 2.66 3.10 3.03 2.54 1.39 1.42 1.25 1.91 2.42 1.82 1.10 1.04 1.53 1.37 0.94 1.04 0.75 0.37 0.63 0.27 0.36 0.37 0.37 0.42 0.54 0.73 0.91 1.14 1.29 1.15 1.25 1.37 1.50 2.02 1.95 1.69 1.70 2.18 2.20 2.25 2.38 1.76 1.22 1.66 1.86 1.66 1.46 1.20 1.15 1.37 2.24 2.30 1.75 1.55 1.63 1.31 1.11 1.25 1.51 1.79 1.99 1.70 1.38 1.76 2.39 2.50 2.36 1.89 1.59 1.73 2.02 2.15 1.85 1.52 1.27 1.21 1.17 1.10 1.01
1.19 1.21 1.57 1.56 1.41 1.36 1.98 2.01 1.08 1.55 1.67 1.21 1.19 1.14 1.84 2.47 2.05 0.99 0.54 0.26 0.15 0.08 0.07 0.14 0.14 0.12 0.10 0.12 0.16 0.21 0.55 1.23 1.67 1.56 1.73 1.01 1.09 1.10 1.15 1.31 1.30 1.12 1.03 0.99 1.00 1.07 1.30 1.89 1.94 1.64 1.54 1.94 2.25 2.06 1.79 1.60 1.47 1.68 2.30 2.27 2.08 2.27 2.19 1.69 1.50 1.45 1.67 2.08 2.01 1.67 1.49 1.39 1.56 1.71 1.51 1.21 1.12 1.11 1.02 0.95 0.96 0.95 0.78 0.76 0.69
0.74 0.99 1.34 1.23 1.53 1.43 1.70 2.43 2.36 2.43 2.15 2.47 2.78 2.55 2.62 2.52 2.20 2.19 1.84 2.10 1.08 0.40 0.28 0.25 0.30 0.39 0.41 0.19 0.14 0.15 0.37 1.26 0.94 0.49 0.59 0.57 0.60 0.73 0.84 0.84 0.90 1.10 1.39 1.64 1.42 1.01 1.05 1.09 1.13 1.06 0.91 0.90 1.02 1.14 1.20 1.24 1.23 1.20 1.40 1.53 1.53 1.44 1.50 1.63 1.51 1.31 1.13 1.02 1.11 0.96 0.83 0.73 0.78 0.86 0.86 0.84 0.78 0.81 0.85 0.89 0.89 0.81 0.80 0.80 0.71
0.86 0.79 0.56 0.52 0.65 0.59 0.83 1.39 1.96 1.32 1.76 2.48 2.04 1.22 0.95 1.28 0.76 1.20 1.53 1.55 1.21 0.74 0.52 0.74 0.71 0.83 0.93 0.84 0.77 0.71 0.90 0.99 1.15 1.00 0.38 0.40 0.43 0.64 0.81 0.65 0.61 0.55 0.60 0.71 0.74 0.86 0.97 0.99 1.06 1.04 1.01 1.03 1.07 1.10 1.17 1.21 1.09 0.95 0.99 1.07 1.11 1.13 1.07 1.01 1.01 0.91 0.86 0.82 0.86 1.04 1.01 1.04 1.07 1.06 1.06 1.04 1.10 1.00 0.99 1.01 1.02 1.02 0.99 0.90 0.82
0.82 0.59 0.62 0.75 0.81 0.90 0.77 1.04 1.40 1.21 1.26 1.35 1.89 2.79 3.11 2.29 2.39 2.25 2.07 1.81 1.47 1.68 1.94 2.21 1.79 1.52 0.88 1.58 1.52 1.57 1.57 1.33 1.72 1.66 0.92 1.09 1.02 1.30 1.21 0.92 0.43 0.42 0.45 0.55 0.76 0.76 0.67 0.58 0.59 0.65 0.69 0.71 0.72 0.79 0.82 0.90 0.86 0.79 0.74 0.67 0.70 0.82 0.93 0.98 1.02 1.05 1.06 1.10 0.96 0.91 0.93 0.94 0.93 0.89 0.88 0.89 0.89 0.88 0.87 0.82 0.79 0.76 0.74 0.72 0.70
0.68 0.72 0.59 0.54 0.71 0.98 1.21 1.17 1.61 1.30 1.31 1.31 1.17 1.32 1.34 1.39 1.13 0.89 1.04 1.67 1.76 1.59 1.43 1.93 2.76 2.65 2.54 1.76 1.58 1.48 1.25 0.87 1.27 1.24 1.06 0.96 1.12 0.97 0.87 0.60 0.43 0.47 0.40 0.28 0.51 0.43 0.44 0.45 0.54 0.47 0.34 0.47 0.46 0.50 0.51 0.51 0.51 0.50 0.47 0.47 0.43 0.40 0.41 0.45 0.51 0.59 0.65 0.78 0.66 0.63 0.59 0.55 0.54 0.54 0.55 0.54 0.56 0.56 0.54 0.54 0.56 0.58 0.57 0.56 0.53
0.73 0.95 0.90 1.22 1.66 0.93 0.73 0.61 0.64 1.11 1.72 1.69 1.36 1.48 1.50 1.66 2.04 1.82 1.49 1.15 1.25 2.10 1.65 1.63 1.48 1.12 1.02 1.08 1.07 0.86 0.67 0.60 0.55 0.80 0.88 0.84 0.86 0.59 0.51 0.46 0.28 0.38 0.32 0.27 0.39 0.58 0.42 0.39 0.36 0.30 0.19 0.20 0.21 0.27 0.31 0.33 0.35 0.40 0.38 0.27 0.24 0.24 0.33 0.18 0.15 0.20 0.35 0.19 0.20 0.21 0.24 0.24 0.25 0.25 0.23 0.22 0.20 0.19 0.19 0.20 0.22 0.23 0.24 0.25 0.26
0.23 0.22 0.25 0.37 0.48 0.64 0.51 0.59 0.76 0.85 0.82 0.80 1.02 1.13 1.24 1.12 1.14 1.66 1.47 1.66 1.37 1.01 1.07 0.91 0.76 0.71 0.56 0.63 0.73 0.69 0.59 0.50 0.64 0.44 0.80 0.62 0.42 0.31 0.24 0.29 0.11 0.08 0.13 0.15 0.17 0.28 0.42 0.42 0.32 0.33 0.44 0.51 0.61 0.42 0.51 0.54 0.38 0.36 0.18 0.18 0.16 0.12 0.10 0.08 0.07 0.05 0.04 0.10 0.14 0.03 0.04 0.04 0.07 0.07 0.08 0.09 0.09 0.08 0.07 0.06 0.05 0.05 0.05 0.05 0.06